Location: Oberwangen
(47.4286°N, 8.9679°E)
Time: 23:20:47
(UTC+00:00)

EO 1 Del DPAF - Pass Details

Date: 20 June 2021
Orbit: 506 x 508 km, 98.0° (Epoch: 23 July)

Event Time Altitude Azimuth Distance (km) Brightness Sun altitude
Rises 23:34:32 0° 20° (NNE) 2,621 8.2 -19.1°
Reaches altitude 10° 23:36:43 10° 27° (NNE) 1,731 6.8 -19.1°
Maximum altitude 23:40:15 41° 99° (E) 748 3.9 -19.1°
Enters shadow 23:40:53 37° 126° (SE) 797 3.8 -19.1°
